Temperature
17 17 17 17 17 17 16 16 16 16 16 17 17 17 17 17 17 17 17 17 17 17 17 16 16 16 16 15 15 15 15 15 15 15 15 14 14 14
17 17 17 17 17 17 16 16 16 16 16 16 17 17 17 17 17 17 17 16 16 16 16 16 16 16 15 15 15 15 15 15 15 14 14 14 14 14
16 16 17 17 16 16 16 16 16 16 16 16 16 16 16 16 16 16 16 16 16 16 16 16 16 15 15 15 15 15 15 15 14 14 14 14 14 14
16 16 16 16 16 16 16 16 16 16 16 16 16 16 16 16 16 16 16 16 15 15 15 15 15 15 15 15 15 14 14 14 14 14 14 14 14 14
16 16 16 16 16 16 16 16 16 16 15 15 15 15 15 15 15 15 15 15 15 15 15 15 15 14 14 14 14 14 14 14 13 13 13 13 13 13
16 16 16 15 16 16 16 15 15 15 15 15 15 15 15 14 14 14 14 14 14 14 14 14 14 14 14 13 13 13 13 13 13 13 13 12 12 12
15 15 15 15 15 15 15 15 15 15 15 14 14 14 14 14 13 13 13 13 13 13 13 13 13 13 13 13 13 12 12 12 12 12 12 12 11 11
15 15 15 14 14 14 14 14 14 14 14 14 13 13 13 13 13 13 12 12 12 12 12 12 12 12 12 12 12 12 11 11 11 11 11 11 11 11
14 14 14 14 14 14 14 14 14 13 13 13 13 12 12 12 12 12 12 12 12 11 11 11 11 11 11 11 11 11 11 11 11 10 10 10 10 10
14 14 13 13 13 13 13 13 13 12 12 12 12 12 12 12 11 11 11 11 11 11 11 11 11 11 10 10 10 10 10 10 10 10 10 10 10 10
13 13 13 13 12 12 13 12 12 12 11 11 11 11 11 11 11 11 11 11 11 10 10 10 10 10 10 10 10 9 9 9 9 9 9 9 9 9
12 12 12 12 12 12 12 12 11 11 11 11 11 10 10 10 10 10 10 10 10 9 9 9 9 9 9 9 9 9 9 9 9 9 8 8 8 8
12 11 11 11 11 11 11 11 10 10 10 10 10 10 10 10 9 9 9 9 9 9 9 9 9 8 8 8 8 8 8 8 8 8 8 8 8 8
11 11 10 10 10 10 10 10 10 10 10 9 9 9 9 9 9 9 9 8 8 8 8 8 8 8 8 7 7 7 7 7 7 7 7 7 7 7
10 10 10 10 10 9 9 9 9 9 9 9 9 8 8 8 8 8 8 8 8 7 7 7 7 7 7 7 7 7 7 7 7 7 7 7 7 6
10 9 9 9 9 9 9 9 9 8 8 8 8 8 7 7 7 7 7 7 7 7 7 7 7 7 7 7 7 6 6 6 6 6 6 6 6 6
9 9 9 9 8 8 8 8 8 8 7 7 7 7 7 7 6 6 6 7 7 7 7 7 7 6 6 6 6 6 6 6 6 6 6 6 5 5
9 9 8 8 8 7 7 7 7 7 7 6 6 6 6 6 6 6 6 6 6 6 6 6 6 6 6 6 5 5 5 5 5 5 5 5 5 5
8 8 7 7 7 7 7 7 6 6 6 6 6 6 6 6 6 5 5 5 5 5 5 5 5 5 5 5 5 5 4 5 5 5 5 4 4 4
7 7 7 7 6 6 6 6 6 6 6 5 5 5 5 5 5 5 5 5 5 5 5 5 5 4 4 4 4 4 4 4 4 4 4 4 4 4
7 6 6 6 6 6 6 6 5 5 5 5 5 5 5 5 5 4 4 4 4 4 4 4 4 4 4 4 4 4 4 4 4 4 4 4 4 4
6 6 6 6 5 5 5 5 5 5 5 5 5 4 4 4 4 4 4 4 4 4 4 4 4 4 4 4 4 4 4 4 4 4 4 3 3 3
6 6 5 5 5 5 5 5 5 5 4 4 4 4 4 4 4 4 4 4 4 4 4 4 3 3 3 3 3 3 3 3 3 3 3 3 3 3
Wind_Speed
6 6 6 5 5 5 5 5 5 5 5 4 3 2 4 5 6 6 6 7 9 10 11 12 13 13 13 14 14 14 14 13 13 13 14 14 14 13
4 4 5 4 4 4 5 5 5 6 5 3 3 2 2 3 5 5 5 6 7 8 9 10 10 10 11 12 12 13 13 13 12 12 12 12 12 12
4 4 5 4 4 4 4 4 5 5 6 4 2 2 2 3 2 3 4 4 4 5 6 7 8 9 9 9 9 10 11 11 11 10 10 10 11 11
5 4 5 4 4 4 3 4 4 4 5 5 3 2 3 2 1 1 1 1 1 2 2 3 4 5 6 6 6 7 8 9 9 9 8 8 8 9
4 4 4 3 3 3 3 4 3 3 3 3 3 1 2 1 0 0 1 2 2 2 3 2 1 1 1 2 3 3 4 4 5 5 5 6 6 6
1 2 2 2 3 3 2 3 2 2 2 2 2 1 1 1 0 0 1 2 2 3 4 4 5 5 4 3 2 1 1 2 2 3 4 5 5 6
1 1 1 1 1 1 1 2 2 2 2 2 1 0 1 1 0 0 0 1 2 2 2 3 4 4 4 4 3 4 3 2 2 3 4 4 5 6
1 2 2 2 3 4 4 4 3 2 2 1 1 0 1 1 1 1 1 0 1 2 1 2 3 3 4 5 5 5 5 5 4 4 4 4 5 5
4 3 3 3 4 4 6 8 7 6 3 2 2 0 1 1 0 0 0 1 1 2 1 1 2 2 3 5 6 6 6 5 5 5 5 5 6 6
5 5 5 5 5 5 7 8 8 7 7 5 4 3 3 2 1 1 1 1 0 2 1 1 2 2 2 4 6 7 7 7 6 5 6 6 6 6
7 7 6 6 7 8 8 8 8 7 10 12 11 9 10 9 5 3 2 1 1 2 2 1 1 2 2 1 4 6 6 6 6 7 7 7 7 6
6 7 10 9 9 9 7 7 7 5 5 7 8 9 9 10 10 5 2 1 1 2 3 2 1 1 1 2 3 5 5 6 7 7 8 8 7 4
6 6 7 12 12 11 9 7 6 5 6 6 6 6 7 7 7 7 5 3 2 1 3 2 1 2 1 2 2 3 5 5 6 6 8 8 7 5
6 6 8 13 14 13 10 9 10 8 6 6 6 6 6 5 5 6 7 6 4 3 3 2 1 1 1 2 2 3 4 5 5 5 7 7 7 7
7 10 11 12 12 11 12 12 9 7 7 7 6 5 4 4 5 5 6 7 7 7 7 5 2 1 1 1 2 3 3 4 5 5 5 5 5 5
8 10 12 13 11 10 9 8 7 7 6 5 4 4 4 5 6 5 4 4 4 5 8 9 7 3 1 1 1 2 3 3 4 5 4 4 5 5
7 7 7 7 7 7 7 7 6 6 6 5 5 5 5 5 5 5 4 4 4 5 6 6 8 5 3 1 2 3 4 4 4 4 3 4 4 4
8 7 6 6 5 5 5 5 5 5 5 4 4 4 4 4 4 5 4 4 4 4 5 5 5 4 3 3 2 3 4 4 4 4 3 2 3 4
8 6 5 5 4 4 4 4 3 4 3 4 4 4 4 4 4 4 4 4 4 4 4 4 5 4 5 5 4 3 3 5 4 4 3 3 3 4
6 5 4 4 3 3 3 3 3 3 4 4 3 3 3 3 4 4 4 4 4 4 4 5 5 4 3 3 4 4 5 4 4 4 4 3 3 4
4 4 3 3 3 3 3 3 3 3 3 3 3 3 3 3 3 3 3 4 4 4 5 5 5 6 3 2 2 4 4 5 3 3 3 3 4 3
3 3 3 2 2 2 3 3 3 3 3 3 3 3 3 2 3 3 3 3 3 4 4 5 5 4 2 3 4 5 5 6 6 4 3 3 3 3
2 2 2 2 2 2 2 2 3 2 3 2 3 3 3 3 3 3 3 3 3 4 4 5 5 4 3 3 4 4 6 6 5 5 5 7 4 4
Wind_Direction
219 221 227 231 223 221 212 202 210 245 262 253 251 259 248 241 246 231 231 236 232 234 238 240 240 241 240 241 243 245 246 247 247 249 252 254 255 256
219 221 229 235 228 223 221 218 215 223 247 251 237 249 255 257 251 235 237 247 249 246 245 246 247 247 246 245 245 246 246 247 248 250 252 254 255 256
222 221 234 230 225 225 221 218 218 213 234 258 245 250 239 258 276 250 248 247 258 262 256 255 253 248 245 244 245 247 246 246 247 248 249 253 256 257
223 220 235 230 229 227 218 222 221 213 218 248 260 255 245 255 259 265 302 265 260 296 276 270 259 249 247 245 249 251 253 251 248 246 248 255 261 261
220 221 235 222 232 231 220 223 224 216 206 219 251 259 262 263 226 28 27 8 21 26 23 0 330 278 279 274 275 269 265 257 257 258 259 264 269 270
225 228 238 224 231 229 223 217 205 193 187 198 231 268 299 322 44 48 14 25 17 18 25 35 44 57 43 29 15 354 330 301 294 289 282 279 277 273
80 43 40 71 84 159 192 167 163 169 171 181 205 272 316 355 316 286 269 24 24 16 18 20 30 40 27 16 21 30 32 17 350 326 308 295 286 280
66 49 49 55 68 82 90 97 115 152 159 158 171 216 286 279 298 256 232 282 335 355 7 10 35 37 29 32 28 38 38 29 18 3 344 325 307 293
60 57 56 51 70 82 79 74 66 66 91 127 109 33 309 303 240 33 67 102 269 321 340 348 9 14 18 31 36 40 37 34 28 18 1 342 325 311
62 62 68 60 65 84 83 71 61 52 59 68 76 60 53 46 72 146 138 130 85 3 8 326 336 330 348 24 37 41 40 40 34 23 6 348 335 321
58 55 65 69 66 82 88 81 68 54 60 67 69 65 57 51 54 73 69 84 18 359 5 339 322 315 320 355 23 30 34 31 23 16 8 359 350 341
61 54 57 67 63 69 83 87 80 61 59 56 52 48 47 45 43 46 51 68 38 5 360 350 336 345 340 347 357 6 12 14 14 16 13 5 0 356
74 63 57 63 64 62 69 76 80 76 68 65 57 48 43 40 37 38 40 52 61 28 1 360 350 352 332 320 334 354 3 2 1 5 9 8 5 5
83 76 73 71 68 65 66 65 68 70 69 63 57 45 37 30 24 32 42 49 51 40 6 15 4 344 332 326 325 338 349 358 2 359 359 7 12 14
85 84 79 73 70 66 59 58 60 64 68 66 58 45 31 22 27 34 37 43 47 41 31 25 19 357 353 325 326 333 336 348 359 358 358 4 2 4
84 77 73 69 68 62 56 52 53 57 64 63 54 42 33 35 36 31 28 21 38 31 25 24 20 17 21 3 348 345 344 338 343 350 352 355 5 14
92 75 66 64 62 57 53 49 47 47 50 47 50 46 39 36 31 23 26 30 36 21 11 9 12 19 30 17 15 4 356 352 346 345 349 356 1 7
87 78 73 70 68 62 56 50 46 45 44 47 49 46 41 36 31 27 31 34 31 18 12 4 2 11 23 41 26 355 354 346 341 345 350 348 351 357
81 80 76 70 64 60 54 51 44 35 37 45 44 39 37 38 38 30 25 24 18 10 6 4 8 13 12 1 357 3 342 338 338 345 344 334 323 330
76 80 76 70 64 58 52 47 42 38 38 37 37 33 30 31 31 25 20 13 6 2 2 6 5 358 344 329 325 330 337 332 335 338 336 326 312 302
79 75 71 68 62 55 48 43 44 41 33 29 27 20 16 18 17 11 7 3 3 357 352 349 335 322 304 312 330 339 343 342 320 314 326 326 328 333
86 80 66 60 56 53 48 43 42 36 27 24 13 6 1 3 0 354 352 351 349 346 337 337 342 349 5 5 354 344 345 352 357 346 314 293 315 329
93 85 70 52 45 45 40 35 31 21 12 4 358 352 349 346 340 340 340 341 343 349 349 349 356 3 2 358 352 351 352 351 351 359 7 3 340 308
Height
1553 1554 1555 1556 1556 1557 1558 1559 1560 1558 1557 1557 1558 1559 1559 1559 1559 1559 1559 1559 1560 1560 1560 1560 1560 1561 1561 1561 1561 1561 1561 1561 1561 1562 1562 1562 1562 1562
1549 1550 1550 1551 1552 1553 1554 1554 1554 1555 1553 1553 1554 1554 1555 1555 1554 1554 1554 1555 1555 1555 1555 1556 1555 1556 1556 1556 1556 1556 1556 1556 1556 1556 1556 1556 1556 1556
1545 1546 1547 1547 1548 1548 1549 1549 1550 1550 1549 1549 1549 1550 1550 1550 1550 1550 1550 1550 1550 1551 1551 1551 1551 1551 1551 1551 1551 1551 1551 1550 1550 1550 1550 1550 1550 1550
1541 1542 1543 1543 1543 1544 1544 1544 1545 1545 1545 1544 1544 1545 1545 1545 1545 1545 1545 1546 1546 1546 1546 1546 1546 1546 1546 1545 1545 1545 1545 1545 1545 1544 1544 1544 1544 1544
1538 1538 1539 1539 1539 1539 1540 1540 1540 1540 1540 1540 1540 1540 1540 1540 1540 1541 1541 1541 1541 1541 1541 1541 1541 1541 1541 1540 1540 1540 1540 1540 1539 1539 1538 1538 1538 1537
1534 1535 1535 1535 1535 1535 1535 1535 1536 1536 1536 1536 1536 1536 1536 1536 1536 1536 1536 1537 1537 1537 1537 1537 1536 1536 1536 1536 1535 1535 1535 1535 1534 1534 1533 1533 1533 1532
1531 1532 1532 1532 1532 1531 1531 1531 1531 1531 1531 1531 1531 1531 1531 1532 1532 1532 1532 1533 1533 1533 1533 1533 1532 1532 1532 1532 1531 1531 1531 1530 1530 1529 1529 1528 1528 1528
1529 1529 1529 1529 1529 1528 1528 1528 1528 1528 1528 1528 1527 1527 1528 1528 1529 1529 1529 1529 1529 1530 1530 1529 1529 1529 1529 1529 1528 1528 1527 1527 1526 1525 1525 1524 1524 1523
1527 1527 1527 1527 1527 1526 1525 1525 1525 1525 1526 1526 1525 1525 1525 1526 1526 1526 1526 1526 1526 1527 1527 1526 1527 1526 1526 1526 1526 1525 1525 1524 1523 1522 1521 1521 1520 1519
1527 1527 1526 1526 1526 1525 1525 1524 1524 1524 1524 1523 1523 1524 1524 1524 1524 1525 1525 1525 1525 1525 1525 1525 1524 1524 1524 1524 1523 1522 1522 1521 1520 1519 1518 1517 1516 1515
1526 1527 1526 1526 1526 1526 1525 1524 1524 1524 1524 1524 1524 1524 1524 1524 1524 1524 1524 1523 1523 1523 1523 1523 1522 1521 1521 1521 1520 1519 1519 1518 1517 1515 1514 1513 1512 1511
1527 1527 1527 1527 1527 1526 1526 1525 1524 1525 1525 1525 1525 1525 1525 1524 1524 1524 1523 1522 1522 1521 1521 1521 1520 1520 1519 1518 1517 1517 1516 1515 1514 1513 1511 1510 1509 1508
1527 1527 1528 1528 1528 1527 1527 1526 1526 1526 1526 1526 1526 1526 1525 1525 1524 1524 1523 1522 1521 1521 1520 1519 1518 1517 1517 1516 1515 1514 1513 1512 1511 1510 1509 1507 1506 1505
1528 1528 1528 1529 1529 1529 1528 1528 1528 1528 1528 1527 1527 1527 1526 1525 1525 1524 1523 1522 1521 1521 1520 1519 1517 1516 1515 1514 1513 1512 1512 1510 1509 1508 1506 1505 1503 1502
1530 1530 1530 1530 1530 1530 1530 1530 1530 1529 1529 1529 1528 1527 1527 1526 1525 1524 1523 1523 1522 1521 1520 1518 1517 1516 1515 1514 1513 1511 1510 1509 1507 1506 1504 1503 1501 1500
1531 1532 1532 1532 1532 1532 1532 1532 1531 1531 1530 1530 1530 1529 1529 1528 1526 1525 1524 1523 1522 1521 1520 1519 1517 1516 1514 1513 1512 1511 1509 1508 1506 1504 1503 1501 1500 1498
1533 1534 1534 1534 1534 1534 1534 1533 1533 1533 1532 1532 1531 1530 1530 1529 1528 1527 1526 1524 1523 1521 1520 1519 1517 1516 1514 1513 1512 1510 1508 1507 1505 1503 1501 1499 1498 1496
1536 1536 1536 1536 1536 1536 1535 1535 1535 1534 1534 1533 1532 1531 1531 1530 1529 1528 1526 1525 1523 1522 1520 1518 1517 1515 1514 1512 1511 1509 1507 1505 1503 1501 1499 1498 1496 1495
1538 1538 1538 1538 1538 1537 1537 1537 1536 1536 1535 1534 1533 1533 1532 1530 1529 1528 1527 1525 1524 1522 1521 1519 1517 1514 1513 1511 1510 1509 1506 1504 1502 1500 1498 1497 1495 1494
1539 1540 1540 1540 1539 1539 1538 1538 1537 1536 1536 1535 1534 1533 1532 1531 1530 1528 1527 1526 1524 1522 1520 1519 1517 1515 1513 1512 1509 1508 1506 1503 1501 1499 1497 1496 1494 1492
1541 1541 1541 1541 1541 1540 1539 1538 1538 1537 1536 1536 1535 1534 1532 1531 1530 1529 1527 1526 1524 1522 1520 1518 1516 1515 1513 1511 1509 1507 1505 1503 1501 1498 1496 1494 1492 1491
1543 1543 1543 1542 1541 1541 1540 1539 1538 1537 1537 1536 1535 1534 1532 1531 1530 1529 1527 1526 1524 1522 1520 1518 1516 1514 1512 1510 1508 1506 1504 1503 1501 1498 1496 1494 1492 1490
1544 1543 1543 1542 1542 1541 1540 1539 1538 1537 1536 1535 1534 1533 1532 1531 1529 1528 1527 1525 1523 1522 1520 1518 1516 1514 1512 1510 1508 1506 1504 1502 1500 1497 1496 1494 1492 1490